Location: Grisols
(45.0093°N, 3.1167°E)
Time: 00:52:49
(UTC+00:00)

Cosmos 292 Rocket - Pass Details

Date: 21 October 2019
Orbit: 673 x 695 km, 74.0° (Epoch: 17 November)

Event Time Altitude Azimuth Distance (km) Brightness Sun altitude
Rises 17:24:09 0° 196° (SSW) 3,010 7.4 -6.2°
Reaches altitude 10° 17:26:26 10° 195° (SSW) 2,099 6.6 -6.6°
Maximum altitude 17:31:08 79° 109° (ESE) 691 3.7 -7.4°
Drops below altitude 10° 17:35:54 10° 23° (NNE) 2,118 6.0 -8.3°
Sets 17:38:13 0° 23° (NNE) 3,039 6.8 -8.7°
